Location: Rounton
(54.4000°N, 1.3500°W)
Time: 08:24:24
(UTC+00:00)

Tiros 1 despin weight - Pass Details

Date: 08 December 2021
Orbit: 592 x 641 km, 48.2° (Epoch: 19 January)

Event Time Altitude Azimuth Distance (km) Brightness Sun altitude
Rises 11:22:56 0° 205° (SSW) 2,844 ? 12.5°
Reaches altitude 10° 11:26:04 10° 182° (S) 1,935 ? 12.5°
Maximum altitude 11:28:35 15° 147° (SSE) 1,629 ? 12.6°
Drops below altitude 10° 11:31:05 10° 112° (ESE) 1,929 ? 12.6°
Sets 11:34:12 0° 89° (E) 2,829 ? 12.7°
